| time (UTC) | temp F | wind direction | speed MPH | gust MPH | rain 1hr in | rain 24hr in | rain mn in | humidity % | barometer mb |
| 20260510153053 | 82 | 334 | 1.0 | 4.0 | 0.00 | 0.00 | 0.00 | 12 | 1018.0 |
| 20260510151556 | 82 | 241 | 0.0 | 1.0 | 0.00 | 0.00 | 0.00 | 12 | 1018.0 |
| 20260510150029 | 82 | 131 | 0.0 | 2.0 | 0.00 | 0.00 | 0.00 | 16 | 1018.0 |
| 20260510144538 | 81 | 141 | 0.0 | 1.0 | 0.00 | 0.00 | 0.00 | 13 | 1018.0 |
| 20260510143049 | 77 | 110 | 0.0 | 1.0 | 0.00 | 0.00 | 0.00 | 16 | 1017.9 |
| 20260510141537 | 77 | 110 | 0.0 | 0.0 | 0.00 | 0.00 | 0.00 | 19 | 1017.7 |
| 20260510133029 | 69 | 111 | 0.0 | 1.0 | 0.00 | 0.00 | 0.00 | 24 | 1017.3 |
| 20260510131518 | 67 | 308 | 0.0 | 0.0 | 0.00 | 0.00 | 0.00 | 20 | 1016.9 |
| 20260510034531 | 84 | 155 | 9.0 | 15.0 | 0.00 | 0.00 | 0.00 | 13 | 1012.5 |
| 20260510000032 | 93 | 207 | 6.0 | 15.0 | 0.00 | 0.00 | 0.00 | 10 | 1010.8 |
| 20260509234537 | 93 | 267 | 7.0 | 17.0 | 0.00 | 0.00 | 0.00 | 10 | 1010.9 |
| 20260509233021 | 94 | 283 | 10.0 | 15.0 | 0.00 | 0.00 | 0.00 | 10 | 1010.8 |
| 20260509231538 | 95 | 231 | 13.0 | 19.0 | 0.00 | 0.00 | 0.00 | 9 | 1010.7 |
| 20260509230052 | 95 | 110 | 6.0 | 13.0 | 0.00 | 0.00 | 0.00 | 10 | 1011.0 |
| 20260509224521 | 93 | 231 | 5.0 | 17.0 | 0.00 | 0.00 | 0.00 | 11 | 1011.2 |
| 20260509214542 | 92 | 110 | 6.0 | 15.0 | 0.00 | 0.00 | 0.00 | 11 | 1012.1 |
| 20260509213021 | 93 | 151 | 8.0 | 19.0 | 0.00 | 0.00 | 0.00 | 11 | 1012.3 |
| 20260509211536 | 92 | 122 | 1.0 | 8.0 | 0.00 | 0.00 | 0.00 | 11 | 1012.4 |
| 20260509210036 | 93 | 124 | 6.0 | 12.0 | 0.00 | 0.00 | 0.00 | 11 | 1012.6 |
| 20260509204556 | 94 | 153 | 2.0 | 7.0 | 0.00 | 0.00 | 0.00 | 11 | 1012.8 |
| 20260509203041 | 94 | 118 | 3.0 | 9.0 | 0.00 | 0.00 | 0.00 | 10 | 1013.2 |
| 20260509201535 | 94 | 110 | 4.0 | 9.0 | 0.00 | 0.00 | 0.00 | 11 | 1013.3 |
| 20260509200035 | 96 | 120 | 1.0 | 7.0 | 0.00 | 0.00 | 0.00 | 10 | 1013.4 |
| 20260509194529 | 94 | 5 | 2.0 | 8.0 | 0.00 | 0.00 | 0.00 | 10 | 1013.6 |
| 20260509193037 | 95 | 118 | 2.0 | 7.0 | 0.00 | 0.00 | 0.00 | 10 | 1013.9 |
| 20260509191551 | 95 | 50 | 2.0 | 4.0 | 0.00 | 0.00 | 0.00 | 10 | 1014.0 |